Regional Weather Roundup
Issued by NWS

Home | Current Version | Previous Version | Text Only | Print | Product List | Glossary Off
Versions: 1 2 3 4 5 6 7 8 9 10 11 12 13 14 15 16 17 18 19 20 21 22 23 24 25 26 27 28 29 30 31 32 33 34 35 36 37 38 39 40 41 42 43 44 45 46 47 48 49 50

000
ASUS43 KFSD 260210
RWRSD

WEATHER ROUNDUP FOR SOUTH DAKOTA
NATIONAL WEATHER SERVICE SIOUX FALLS SD
900 PM CDT SUN JUN 25 2017

NOTE: "FAIR" INDICATES FEW OR NO CLOUDS BELOW 12,000 FEET WITH NO
SIGNIFICANT WEATHER AND/OR OBSTRUCTIONS TO VISIBILITY.


SDZ001>005-009-010-012>017-260300-
NORTHWEST AND NORTH CENTRAL SOUTH DAKOTA

CITY           SKY/WX    TMP DP  RH WIND       PRES   REMARKS
BUFFALO          N/A     70  37  29 NE15      30.17R
FAITH            N/A     68  38  33 NE16      30.19R
MOBRIDGE       CLEAR     68  42  38 NE6       30.17S
$$

SDZ012>016-024>037-041>051-057-063-072>074-260300-
SOUTHWEST AND SOUTH CENTRAL SOUTH DAKOTA

CITY           SKY/WX    TMP DP  RH WIND       PRES   REMARKS
RAPID CTY ARPT CLEAR     74  28  18 N14       30.19R
PIERRE         CLEAR     68  43  40 NE15G24   30.14R
CUSTER         PTCLDY    64  34  32 E13G20    30.31R
ELLSWORTH AFB  CLEAR     76  28  17 N16G22    30.19R
PHILIP         PTCLDY    71  40  32 NE17      30.15R
PINE RIDGE     PTCLDY    71  46  40 NE7       30.18S
SPEARFISH      FAIR      68  32  26 N6G13     30.25S
WINNER         FAIR      72  41  32 S7        30.14F
$$

SDZ004>011-016>023-039-040-260300-
NORTHEAST SOUTH DAKOTA

CITY           SKY/WX    TMP DP  RH WIND       PRES   REMARKS
ABERDEEN       CLEAR     60  48  64 N8        30.20R
WATERTOWN      MOCLDY    57  50  77 N3        30.19R
BROOKINGS      CLOUDY    57  47  69 SW3       30.17F
SISSETON         N/A     62  46  55 NW9       30.18R
$$

SDZ017-020-022-023-036>040-048>070-260300-
SOUTHEAST SOUTH DAKOTA

CITY           SKY/WX    TMP DP  RH WIND       PRES   REMARKS
SIOUX FALLS    PTCLDY    66  45  46 CALM      30.17F
HURON          MOCLDY    63  48  58 NE10      30.17R
CHAMBERLAIN    CLEAR     71  44  37 E5        30.13S
MITCHELL       PTCLDY    64  51  62 SE7       30.14F
YANKTON        CLEAR     68  44  42 E5        30.17F
$$

ABBREVIATIONS USED IN REMARKS
   TC - TEMPERATURE IN CELSIUS
  WCI - WIND CHILL INDEX
   HX - HEAT INDEX
  VSB - VISIBILITY




USA.gov is the U.S. government's official web portal to all federal, state and local government web resources and services.